Weather in Kozlovo

Russia / Tver Oblast     56°30′49″N   36°16′01″E
temp.,
°C
wind,
m/s
gust,
m/s
humid.,
%
clouds,
%
prec.,
mm/h
press.,
hPa
HPBL,
m
16 april, fri
fri1600:00+8ne61485100 0.0 1020592
03:00+6ene61488100 0.0 1020561
06:00+6ene61387100 0.0 1020542
09:00+7ene51082100 0.0 1021573
12:00+12ene6862100 0.1 1022878
15:00+15ene6956100 0.1 10211209
18:00+14ene61161100 0.0 10211120
21:00+10ene61378100 0.0 1022715
17 april, sat
sat1700:00+9ene61382100 0.1 1022681
03:00+8ene5118398 0.2 1023557
06:00+6ene5118570 0.0 1024448
09:00+9ene697296 0.0 1024569
12:00+13ene6958100 0.0 1023977
15:00+15ene6105091 0.0 10231308
18:00+13ene61154100 0.0 10221126
21:00+10ene61356100 0.0 1023723
18 april, sun
sun1800:00+8ene6145892 0.0 1023656
03:00+6ene5136617 0.0 1023532
06:00+5ene51270100 0.0 1023562
09:00+8ene51161100 0.0 1023773
12:00+11e6947100 0.0 10231348
15:00+12e5947100 0.0 10241757
18:00+10ese41053100 0.0 10241771
21:00+7se2579100 0.0 1025260
19 april, mon
mon1900:00+6ene2684100 0.0 1025269
03:00+6ene3881100 0.0 1025519
06:00+6ene5108487 0.0 1026748
09:00+6ene5984100 0.1 1026939
12:00+6e51082100 0.1 1026781
15:00+6e5977100 0.1 1026741
18:00+6e51178100 0.0 1025795
21:00+6e61277100 0.0 1025791
20 april, tue
tue2000:00+6e51375100 0.0 1023805
03:00+6e61368100 0.0 1022647
06:00+3e61572100 0.0 1020621
09:00+6e71567100 0.0 1018755
12:00+7e71569100 0.0 1015987
15:00+7e81779100 0.9 10111307
18:00+7e102186100 4.0 10071545
21:00+7e92187100 5.7 10041359